Location: Carri�res
(48.9069°N, 2.1792°E)
Time: 04:34:37
(UTC+00:00)

USA 229 DEB - Pass Details

Date: 17 January 2021
Orbit: 965 x 1247 km, 63.4° (Epoch: 26 February)

Event Time Altitude Azimuth Distance (km) Brightness Sun altitude
Rises 20:02:33 0° 317° (NW) 3,928 7.3 -35.1°
Reaches altitude 10° 20:05:10 10° 319° (NW) 3,008 6.6 -35.5°
Enters shadow 20:10:32 54° 329° (NNW) 1,389 4.3 -36.4°
